{"data":{"norad_id":44884,"epoch":"2026-09-20T06:00:14.884128Z","epoch_age_seconds":83291,"freshness":"FRESH","line1":"1 44884U 19093F   26263.25017227  .00002663  00000+0  21094-3 0  9990","line2":"2 44884  97.7909 353.3703 0017667  72.8016 287.5140 15.01333018366687","mean_motion":15.01333018,"eccentricity":0.0017667,"inclination_deg":97.7909,"raan_deg":353.3703,"arg_perigee_deg":72.8016,"mean_anomaly_deg":287.514,"bstar":0.00021094,"rev_number":36668,"period_min":95.914762596662,"perigee_km":550.52226187497,"apogee_km":575.04731492209,"semimajor_km":6940.9217883985,"source":"CELESTRAK","updated_at":"2026-09-20T09:00:14.571414Z"}}